This is the latest recevied weather packets stored in our database for station/object AA8FM-13. If no packets are shown the sender has not sent any weather packets the latest 10 day(s).
| Time | Temp. | Humidity | Pressure | Rain* | Wind** | Luminosity | Snow |
|---|---|---|---|---|---|---|---|
| 1777886882 | 9.44° C | 71% | 1011 hPa | 0 mm | - | 0 W/m² | - |
| 1777886577 | 9.44° C | 70% | 1011.1 hPa | 0 mm | - | 0 W/m² | - |
| 1777886275 | 10° C | 69% | 1010.9 hPa | 0 mm | - | 0 W/m² | - |
| 1777885973 | 10° C | 67% | 1011 hPa | 0 mm | - | 0 W/m² | - |
| 1777885672 | 10° C | 68% | 1011 hPa | 0 mm | - | 0 W/m² | - |
| 1777885369 | 10° C | 68% | 1011 hPa | 0 mm | - | 0 W/m² | - |
| 1777885068 | 10° C | 68% | 1011.1 hPa | 0 mm | - | 0 W/m² | - |
| 1777884763 | 10° C | 67% | 1011.2 hPa | 0 mm | - | 0 W/m² | - |
| 1777884459 | 10° C | 68% | 1011.4 hPa | 0 mm | - | 0 W/m² | - |
| 1777884158 | 10° C | 68% | 1011.5 hPa | 0 mm | - | 0 W/m² | - |
| 1777883854 | 10° C | 68% | 1011.6 hPa | 0 mm | - | 0 W/m² | - |
| 1777883551 | 10° C | 67% | 1011.4 hPa | 0 mm | - | 0 W/m² | - |
| 1777883247 | 10° C | 67% | 1011.2 hPa | 0 mm | - | 0 W/m² | - |
| 1777882943 | 10° C | 67% | 1011.4 hPa | 0 mm | - | 0 W/m² | - |
| 1777882640 | 10° C | 72% | 1011.4 hPa | 0 mm | - | 0 W/m² | - |
| 1777882336 | 10° C | 66% | 1011.5 hPa | 0 mm | - | 0 W/m² | - |
| 1777882033 | 10° C | 67% | 1011.6 hPa | 0 mm | - | 0 W/m² | - |
| 1777881729 | 10° C | 65% | 1011.5 hPa | 0 mm | - | 0 W/m² | - |
| 1777881426 | 10° C | 63% | 1011.8 hPa | 0 mm | - | 0 W/m² | - |
| 1777881123 | 10.56° C | 62% | 1011.6 hPa | 0 mm | - | 0 W/m² | - |
| 1777880822 | 10.56° C | 62% | 1011.8 hPa | 0 mm | - | 0 W/m² | - |
| 1777880519 | 10° C | 60% | 1011.6 hPa | 0 mm | - | 0 W/m² | - |
| 1777880217 | 10.56° C | 63% | 1011.5 hPa | 0 mm | - | 0 W/m² | - |
| 1777879915 | 10° C | 59% | 1011.7 hPa | 0 mm | - | 0 W/m² | - |
| 1777879613 | 10° C | 59% | 1011.4 hPa | 0 mm | - | 0 W/m² | - |
* Rain latest hour (hover to see other rain measurements)
** Current wind speed in m/s (hover to see current wind gust speed)